EW1669 Weather Reports


time (UTC)temp
C
wind
direction
speed
KPH
gust
KPH
rain 1hr
cm
rain 24hr
cm
rain mn
cm
humidity
%
barometer
mb
20260508065350 13 205 0.0 0.0 0.00 0.00 0.00 54 1016.0
20260508064800 13 195 0.0 0.0 0.00 0.00 0.00 53 1015.6
20260508064156 13 213 0.0 4.8 0.00 0.00 0.00 53 1016.0
20260508063548 13 209 0.0 3.2 0.00 0.00 0.00 53 1016.0
20260508062942 13 204 0.0 9.7 0.00 0.00 0.00 53 1016.0
20260508062354 13 209 0.0 0.0 0.00 0.00 0.00 52 1015.6
20260508061747 14 202 0.0 1.6 0.00 0.00 0.00 51 1016.0
20260508061154 14 150 0.0 1.6 0.00 0.00 0.00 51 1016.0
20260508060852 14 205 0.0 1.6 0.00 0.00 0.00 50 1016.0
20260508060046 14 160 0.0 1.6 0.00 0.00 0.00 49 1015.6
20260508055500 14 147 0.0 0.0 0.00 0.00 0.00 49 1016.3
20260508054923 14 154 0.0 0.0 0.00 0.00 0.00 48 1016.0
20260508054405 14 188 0.0 0.0 0.00 0.00 0.00 46 1016.3
20260508053754 15 173 0.0 0.0 0.00 0.00 0.00 45 1016.3
20260508053151 15 200 0.0 0.0 0.00 0.00 0.00 44 1016.3
20260508052558 15 143 0.0 9.7 0.00 0.00 0.00 43 1016.3
20260508051944 15 139 0.0 1.6 0.00 0.00 0.00 42 1016.3
20260508051354 15 196 0.0 1.6 0.00 0.00 0.00 42 1016.3
20260508050747 16 173 0.0 0.0 0.00 0.00 0.00 41 1016.3
20260508050213 15 125 0.0 0.0 0.00 0.00 0.00 41 1016.3
20260508045554 15 145 0.0 0.0 0.00 0.00 0.00 41 1016.3
20260508044955 15 158 0.0 0.0 0.00 0.00 0.00 40 1016.3
20260508044351 15 148 0.0 0.0 0.00 0.00 0.00 40 1016.3
20260508043747 15 150 0.0 0.0 0.00 0.00 0.00 40 1016.3
20260508043208 15 159 0.0 0.0 0.00 0.00 0.00 39 1016.7
20260508042554 15 158 0.0 0.0 0.00 0.00 0.00 39 1016.7
20260508042000 15 159 0.0 0.0 0.00 0.00 0.00 39 1016.3
20260508041345 15 159 0.0 0.0 0.00 0.00 0.00 39 1016.7
20260508040744 16 158 0.0 0.0 0.00 0.00 0.00 38 1016.7
20260508040159 16 161 0.0 0.0 0.00 0.00 0.00 38 1016.3
20260508035558 16 158 0.0 0.0 0.00 0.00 0.00 38 1016.7
20260508034945 16 157 0.0 0.0 0.00 0.00 0.00 37 1016.7
20260508034353 16 156 0.0 0.0 0.00 0.00 0.00 36 1016.7
20260508033745 17 153 0.0 0.0 0.00 0.00 0.00 36 1016.3
20260508033158 17 151 0.0 0.0 0.00 0.00 0.00 36 1016.3
20260508032554 17 153 0.0 0.0 0.00 0.00 0.00 35 1016.7
20260508032012 17 155 0.0 0.0 0.00 0.00 0.00 35 1016.3
20260508031349 17 144 0.0 0.0 0.00 0.00 0.00 34 1016.3
20260508030741 18 155 0.0 0.0 0.00 0.00 0.00 33 1016.0
20260508030425 18 152 0.0 0.0 0.00 0.00 0.00 33 1016.0
20260508025654 18 160 0.0 0.0 0.00 0.00 0.00 33 1016.0
20260508025054 18 142 0.0 1.6 0.00 0.00 0.00 32 1016.0
20260508024554 18 166 0.0 1.6 0.00 0.00 0.00 32 1016.0
20260508024016 18 161 0.0 6.4 0.00 0.00 0.00 31 1015.6
20260508023337 19 144 4.8 6.4 0.00 0.00 0.00 30 1016.0
20260508022750 19 145 0.0 0.0 0.00 0.00 0.00 29 1016.0
20260508022137 19 147 0.0 0.0 0.00 0.00 0.00 26 1015.6
20260508021548 20 162 0.0 0.0 0.00 0.00 0.00 24 1015.6
20260508020958 20 175 0.0 0.0 0.00 0.00 0.00 24 1015.6
20260508020350 20 200 0.0 0.0 0.00 0.00 0.00 23 1015.3
20260508015812 21 210 0.0 0.0 0.00 0.00 0.00 22 1015.6
20260508015151 21 153 0.0 0.0 0.00 0.00 0.00 22 1015.3
20260508014552 21 142 0.0 1.6 0.00 0.00 0.00 21 1015.3
20260508014309 21 153 0.0 3.2 0.00 0.00 0.00 22 1015.3
20260508013500 21 191 0.0 3.2 0.00 0.00 0.00 22 1015.0
20260508012849 22 202 0.0 1.6 0.00 0.00 0.00 22 1015.0
20260508012247 22 204 0.0 1.6 0.00 0.00 0.00 21 1015.3
20260508011651 22 214 0.0 1.6 0.00 0.00 0.00 21 1015.3
20260508011052 22 226 0.0 3.2 0.00 0.00 0.00 21 1015.3
20260508010449 22 207 0.0 0.0 0.00 0.00 0.00 21 1015.0
20260508005852 22 200 0.0 0.0 0.00 0.00 0.00 20 1015.0
20260508005732 23 202 0.0 11.3 0.00 0.00 0.00 20 1015.3
20260508004906 23 215 3.2 11.3 0.00 0.00 0.00 20 1015.3
20260508004055 23 159 0.0 12.9 0.00 0.00 0.00 20 1015.3
20260508003444 23 212 9.7 12.9 0.00 0.00 0.00 21 1015.0
20260508003115 23 201 0.0 6.4 0.00 0.00 0.00 21 1015.3
20260508002251 23 217 0.0 16.1 0.00 0.00 0.00 20 1015.3
20260508001654 23 224 8.0 16.1 0.00 0.00 0.00 20 1015.3
20260508001055 23 224 11.3 14.5 0.00 0.00 0.00 19 1015.3
20260508000551 23 218 0.0 1.6 0.00 0.00 0.00 21 1015.3
20260507235954 23 177 0.0 14.5 0.00 0.00 0.00 22 1015.3
20260507235354 23 233 3.2 4.8 0.00 0.00 0.00 21 1015.3
20260507234751 23 196 0.0 6.4 0.00 0.00 0.00 21 1015.3
20260507234150 23 140 0.0 6.4 0.00 0.00 0.00 22 1015.3
20260507233613 23 215 0.0 3.2 0.00 0.00 0.00 22 1015.3
20260507232956 23 210 1.6 14.5 0.00 0.00 0.00 22 1015.3
20260507232352 23 207 0.0 3.2 0.00 0.00 0.00 22 1015.6
20260507231752 23 181 0.0 6.4 0.00 0.00 0.00 23 1015.6
20260507231212 23 186 0.0 6.4 0.00 0.00 0.00 22 1015.6
20260507230549 23 199 0.0 3.2 0.00 0.00 0.00 23 1016.0
20260507230011 23 227 0.0 1.6 0.00 0.00 0.00 23 1015.6
20260507225356 23 215 0.0 12.9 0.00 0.00 0.00 23 1015.6
20260507225012 23 201 6.4 12.9 0.00 0.00 0.00 22 1015.6
20260507224417 24 153 9.7 12.9 0.00 0.00 0.00 24 1016.0
20260507223817 23 150 0.0 0.0 0.00 0.00 0.00 24 1015.6
20260507222952 23 184 0.0 12.9 0.00 0.00 0.00 25 1016.0
20260507222608 23 132 6.4 12.9 0.00 0.00 0.00 25 1016.0
20260507221803 23 221 0.0 3.2 0.00 0.00 0.00 25 1016.0
20260507221258 23 181 0.0 6.4 0.00 0.00 0.00 25 1016.0
20260507220652 22 174 0.0 4.8 0.00 0.00 0.00 25 1016.0
20260507220052 23 177 1.6 4.8 0.00 0.00 0.00 26 1016.0
20260507215502 22 214 0.0 16.1 0.00 0.00 0.00 25 1016.3
20260507214850 23 142 0.0 20.9 0.00 0.00 0.00 26 1016.7
20260507214304 23 221 1.6 6.4 0.00 0.00 0.00 26 1016.3
20260507213712 23 184 0.0 1.6 0.00 0.00 0.00 26 1016.7
20260507213054 22 202 0.0 4.8 0.00 0.00 0.00 27 1016.7
20260507212451 23 190 0.0 11.3 0.00 0.00 0.00 27 1016.7
20260507211943 23 195 4.8 11.3 0.00 0.00 0.00 27 1017.0
20260507211407 23 193 0.0 4.8 0.00 0.00 0.00 27 1017.3
20260507210844 22 156 1.6 11.3 0.00 0.00 0.00 29 1017.3
20260507210243 22 156 6.4 11.3 0.00 0.00 0.00 28 1017.3
20260507205650 22 210 0.0 4.8 0.00 0.00 0.00 28 1017.3
20260507205059 22 198 0.0 9.7 0.00 0.00 0.00 29 1017.3
20260507204555 22 187 0.0 9.7 0.00 0.00 0.00 27 1017.7
20260507204037 22 203 0.0 9.7 0.00 0.00 0.00 29 1017.7
20260507203713 21 159 0.0 0.0 0.00 0.00 0.00 30 1018.0
20260507202857 21 179 0.0 6.4 0.00 0.00 0.00 29 1018.0
20260507202255 21 105 1.6 6.4 0.00 0.00 0.00 30 1018.0
20260507201056 21 216 0.0 9.7 0.00 0.00 0.00 31 1018.3
20260507200455 21 218 1.6 12.9 0.00 0.00 0.00 31 1018.3
20260507195908 20 211 6.4 12.9 0.00 0.00 0.00 32 1018.7
20260507195351 20 183 0.0 9.7 0.00 0.00 0.00 31 1018.7
20260507194747 21 162 0.0 3.2 0.00 0.00 0.00 33 1018.7
20260507194427 20 198 1.6 6.4 0.00 0.00 0.00 34 1018.7
20260507193551 20 193 0.0 3.2 0.00 0.00 0.00 34 1018.7
20260507193221 20 195 0.0 1.6 0.00 0.00 0.00 36 1018.7
20260507192413 20 105 0.0 1.6 0.00 0.00 0.00 34 1019.0
20260507191853 19 204 0.0 4.8 0.00 0.00 0.00 37 1019.0
20260507191310 19 200 0.0 4.8 0.00 0.00 0.00 37 1019.4
20260507190656 18 185 0.0 3.2 0.00 0.00 0.00 38 1019.4
20260507190052 18 181 0.0 14.5 0.00 0.00 0.00 38 1019.4
20260507185503 18 121 0.0 0.0 0.00 0.00 0.00 39 1019.7
20260507184858 18 144 0.0 0.0 0.00 0.00 0.00 39 1020.0
20260507184259 19 170 0.0 0.0 0.00 0.00 0.00 38 1019.7
20260507183711 18 220 0.0 6.4 0.00 0.00 0.00 40 1020.0
20260507183049 17 204 0.0 11.3 0.00 0.00 0.00 43 1019.7
20260507182508 18 225 0.0 9.7 0.00 0.00 0.00 41 1020.0
20260507181847 18 188 0.0 1.6 0.00 0.00 0.00 40 1020.0
20260507181255 17 203 0.0 6.4 0.00 0.00 0.00 42 1020.0
20260507180650 16 188 1.6 16.1 0.00 0.00 0.00 44 1020.4
20260507180103 17 186 0.0 16.1 0.00 0.00 0.00 43 1020.4
20260507175449 16 202 0.0 12.9 0.00 0.00 0.00 46 1020.7
20260507174838 16 170 0.0 3.2 0.00 0.00 0.00 45 1020.4
20260507174311 16 213 0.0 11.3 0.00 0.00 0.00 45 1020.7
20260507173700 15 203 0.0 11.3 0.00 0.00 0.00 48 1021.1
20260507173054 16 191 6.4 11.3 0.00 0.00 0.00 45 1021.1
20260507172449 15 191 9.7 11.3 0.00 0.00 0.00 48 1021.1
20260507171856 15 164 1.6 9.7 0.00 0.00 0.00 49 1021.1
20260507171250 15 191 0.0 1.6 0.00 0.00 0.00 48 1021.1
20260507170700 15 191 0.0 1.6 0.00 0.00 0.00 49 1021.1
20260507170311 14 145 0.0 9.7 0.00 0.00 0.00 49 1021.1
20260507165441 14 185 0.0 1.6 0.00 0.00 0.00 48 1021.4
20260507165131 13 195 0.0 9.7 0.00 0.00 0.00 50 1021.1
20260507164532 13 178 0.0 3.2 0.00 0.00 0.00 53 1021.4
20260507163655 13 189 1.6 3.2 0.00 0.00 0.00 49 1021.4
20260507163111 13 166 0.0 1.6 0.00 0.00 0.00 52 1021.7
20260507162454 13 172 0.0 12.9 0.00 0.00 0.00 52 1021.4
20260507161849 12 223 11.3 12.9 0.00 0.00 0.00 53 1021.7
20260507161303 12 223 0.0 1.6 0.00 0.00 0.00 53 1021.7
20260507160643 12 148 0.0 1.6 0.00 0.00 0.00 54 1021.4
20260507160040 11 194 0.0 11.3 0.00 0.00 0.00 56 1021.7
20260507155459 11 154 6.4 14.5 0.00 0.00 0.00 55 1021.7
20260507154935 11 164 8.0 14.5 0.00 0.00 0.00 55 1021.7
20260507154345 11 149 0.0 9.7 0.00 0.00 0.00 55 1021.7
20260507154008 10 180 0.0 9.7 0.00 0.00 0.00 58 1021.7
20260507153149 10 159 0.0 3.2 0.00 0.00 0.00 58 1021.7
20260507152559 10 145 0.0 12.9 0.00 0.00 0.00 58 1022.4
20260507152052 11 176 11.3 12.9 0.00 0.00 0.00 57 1021.7
20260507151930 10 197 1.6 4.8 0.00 0.00 0.00 58 1022.1
20260507150851 10 136 0.0 6.4 0.00 0.00 0.00 58 1022.1
20260507150250 10 152 0.0 6.4 0.00 0.00 0.00 58 1022.1
20260507145654 10 199 0.0 0.0 0.00 0.00 0.00 59 1022.4
20260507145050 10 163 0.0 4.8 0.00 0.00 0.00 60 1022.1
20260507144511 9 138 0.0 0.0 0.00 0.00 0.00 63 1022.1
20260507143854 9 149 0.0 0.0 0.00 0.00 0.00 62 1022.1
20260507143308 8 147 0.0 0.0 0.00 0.00 0.00 64 1022.4
20260507142943 8 132 0.0 0.0 0.00 0.00 0.00 65 1022.1
20260507142140 8 135 0.0 1.6 0.00 0.00 0.00 66 1022.1
20260507141613 8 16 0.0 1.6 0.00 0.00 0.00 65 1022.4
20260507141013 8 6 0.0 0.0 0.00 0.00 0.00 66 1022.8
20260507140354 8 6 0.0 0.0 0.00 0.00 0.00 74 1022.4
20260507135754 7 6 0.0 0.0 0.00 0.00 0.00 79 1022.4
20260507135151 6 6 0.0 0.0 0.00 0.00 0.00 83 1022.8
20260507134551 6 7 0.0 0.0 0.00 0.00 0.00 86 1022.8
20260507133954 5 7 0.0 0.0 0.00 0.00 0.00 89 1022.8
20260507133354 5 7 0.0 0.0 0.00 0.00 0.00 90 1022.4
20260507132754 5 7 0.0 0.0 0.00 0.00 0.00 91 1022.4
20260507132135 4 7 0.0 0.0 0.00 0.00 0.00 91 1022.8
20260507131559 3 8 0.0 0.0 0.00 0.00 0.00 91 1022.4
20260507131003 3 8 0.0 0.0 0.00 0.00 0.00 91 1022.4
20260507130411 3 8 0.0 0.0 0.00 0.00 0.00 91 1022.4
20260507125746 3 8 0.0 0.0 0.00 0.00 0.00 91 1022.4
20260507125151 2 8 0.0 0.0 0.00 0.00 0.00 90 1022.1
20260507124627 2 8 0.0 0.0 0.00 0.00 0.00 90 1022.4
20260507124052 2 8 0.0 0.0 0.00 0.00 0.00 90 1022.4
20260507123717 2 8 0.0 0.0 0.00 0.00 0.00 90 1022.4
20260507122854 1 8 0.0 0.0 0.00 0.00 0.00 90 1022.1
20260507122525 1 8 0.0 0.0 0.00 0.00 0.00 90 1022.1
20260507121912 1 8 0.0 3.2 0.00 0.00 0.00 90 1022.1
20260507121054 2 8 0.0 0.0 0.00 0.00 0.00 89 1022.1
20260507120453 2 7 0.0 0.0 0.00 0.00 0.00 89 1022.1
20260507115846 2 7 0.0 0.0 0.00 0.00 0.00 89 1022.1
20260507115513 2 8 0.0 0.0 0.00 0.00 0.00 89 1022.1
20260507114751 3 8 0.0 0.0 0.00 0.00 0.00 89 1021.7
20260507114152 3 8 0.0 0.0 0.00 0.00 0.00 89 1021.7
20260507113551 3 8 0.0 0.0 0.00 0.00 0.00 89 1021.4
20260507112952 3 8 0.0 0.0 0.00 0.00 0.00 88 1021.7
20260507112616 3 8 0.0 0.0 0.00 0.00 0.00 88 1021.7
20260507111757 3 8 0.0 0.0 0.00 0.00 0.00 88 1021.4
20260507111154 3 8 0.0 0.0 0.00 0.00 0.00 88 1021.7
20260507110605 3 8 0.0 0.0 0.00 0.00 0.00 88 1021.7
20260507110230 3 8 0.0 0.0 0.00 0.00 0.00 87 1021.4
20260507105346 3 8 0.0 0.0 0.00 0.00 0.00 87 1021.7
20260507104741 3 8 0.0 0.0 0.00 0.00 0.00 87 1021.7
20260507104633 3 8 0.0 0.0 0.00 0.00 0.00 87 1021.4
20260507103608 3 8 0.0 0.0 0.00 0.00 0.00 86 1021.4
20260507103201 3 8 0.0 0.0 0.00 0.00 0.00 86 1021.4
20260507102353 3 8 0.0 0.0 0.00 0.00 0.00 86 1021.4
20260507101754 3 8 0.0 0.0 0.00 0.00 0.00 85 1021.4
20260507101146 3 8 0.0 0.0 0.00 0.00 0.00 85 1021.7
20260507100551 3 9 0.0 0.0 0.00 0.00 0.00 85 1021.4
20260507095954 3 9 0.0 0.0 0.00 0.00 0.00 84 1021.4
20260507095350 3 9 0.0 0.0 0.00 0.00 0.00 84 1021.4
20260507094743 4 9 0.0 0.0 0.00 0.00 0.00 83 1021.4
20260507094227 4 9 0.0 0.0 0.00 0.00 0.00 83 1021.7
20260507093702 4 9 0.0 0.0 0.00 0.00 0.00 82 1021.4
20260507093105 4 9 0.0 0.0 0.00 0.00 0.00 82 1021.4
20260507092448 4 9 0.0 0.0 0.00 0.00 0.00 80 1021.4
20260507091903 5 9 0.0 0.0 0.00 0.00 0.00 79 1021.4
20260507091253 5 9 0.0 0.0 0.00 0.00 0.00 78 1021.4
20260507090722 5 9 0.0 0.0 0.00 0.00 0.00 77 1021.4
20260507090152 5 9 0.0 0.0 0.00 0.00 0.00 76 1021.7
20260507085551 5 9 0.0 0.0 0.00 0.00 0.00 75 1021.4
20260507085217 5 9 0.0 0.0 0.00 0.00 0.00 75 1021.4
20260507084359 5 9 0.0 0.0 0.00 0.00 0.00 74 1021.1
20260507083757 5 9 0.0 0.0 0.00 0.00 0.00 74 1021.4
20260507083412 6 9 0.0 0.0 0.00 0.00 0.00 74 1021.4
20260507082601 6 9 0.0 1.6 0.00 0.00 0.00 73 1021.4
20260507082017 6 29 0.0 1.6 0.00 0.00 0.00 72 1021.7
20260507081353 6 60 0.0 1.6 0.00 0.00 0.00 72 1021.1
20260507080753 6 72 0.0 1.6 0.00 0.00 0.00 72 1021.1
20260507080419 6 84 0.0 6.4 0.00 0.00 0.00 72 1020.7
20260507075545 6 60 1.6 11.3 0.00 0.00 0.00 72 1020.7
20260507074952 6 86 3.2 11.3 0.00 0.00 0.00 73 1020.7
20260507074350 6 109 3.2 17.7 0.00 0.00 0.00 73 1020.7
20260507073756 6 105 1.6 17.7 0.00 0.00 0.00 73 1020.7
20260507073411 6 71 6.4 12.9 0.00 0.00 0.00 74 1021.1
20260507072551 6 106 3.2 22.5 0.00 0.00 0.00 74 1021.4
20260507071953 6 16 8.0 22.5 0.00 0.00 0.00 74 1021.7
20260507071342 6 31 0.0 4.8 0.00 0.00 0.00 75 1021.4
20260507070750 6 23 1.6 4.8 0.00 0.00 0.00 75 1021.7
20260507070153 6 83 0.0 3.2 0.00 0.00 0.00 75 1021.7